FW7889 Weather Reports


time (UTC)temp
F
wind
direction
speed
knots
gust
knots
rain 1hr
in
rain 24hr
in
rain mn
in
humidity
%
barometer
mb
20260506013617 49 279 0.0 0.0 0.12 0.29 0.29 99 1064.1
20260506012615 49 295 0.9 0.9 0.05 0.27 0.27 99 1064.1
20260506011615 50 321 0.9 1.7 0.07 0.26 0.26 98 1063.5
20260506010611 51 316 0.9 1.7 0.24 0.25 0.25 95 1063.6
20260506005610 53 321 2.6 2.6 0.00 0.20 0.20 88 1063.5
20260506004609 54 324 2.6 2.6 0.00 0.20 0.20 86 1063.0
20260506003608 54 321 2.6 4.3 0.00 0.20 0.20 85 1062.9
20260506002606 54 282 0.9 0.9 0.00 0.20 0.20 91 1062.9
20260506001604 54 276 0.9 0.9 0.00 0.20 0.20 93 1062.5
20260506000559 54 300 1.7 1.7 0.00 0.20 0.20 92 1062.2
20260505235554 54 296 2.6 4.3 0.00 0.20 0.20 99 1062.3
20260505234554 55 285 0.9 0.9 0.00 0.20 0.20 99 1062.1
20260505233554 55 257 0.9 1.7 0.00 0.20 0.20 99 1062.0
20260505232549 55 265 0.9 0.9 0.00 0.20 0.20 99 1061.6
20260505231548 55 266 0.0 0.0 0.00 0.20 0.20 99 1061.2
20260505230544 55 260 0.0 0.0 0.00 0.20 0.20 99 1061.1
20260505225543 55 266 0.0 0.0 0.00 0.20 0.20 99 1061.2
20260505224542 55 272 0.0 0.0 0.26 0.20 0.20 99 1061.2
20260505223542 56 255 2.6 2.6 0.24 0.16 0.16 99 1061.4
20260505222540 58 280 0.9 1.7 0.47 0.12 0.12 97 1061.4
20260505221539 60 267 0.9 0.9 0.00 0.04 0.04 91 1060.8
20260505220539 63 240 3.5 4.3 0.00 0.04 0.04 80 1060.3
20260505215535 64 260 1.7 1.7 0.00 0.04 0.04 78 1060.1
20260505214530 64 320 1.7 1.7 0.00 0.04 0.04 77 1060.0
20260505213530 65 250 2.6 2.6 0.00 0.04 0.04 76 1060.2
20260505212528 65 251 1.7 1.7 0.00 0.04 0.04 76 1059.9
20260505211523 64 291 0.9 0.9 0.00 0.04 0.04 77 1059.7
20260505210522 64 289 1.7 1.7 0.00 0.04 0.04 77 1059.8
20260505205517 64 268 0.9 0.9 0.00 0.04 0.04 77 1060.1
20260505204517 63 256 2.6 2.6 0.00 0.04 0.04 78 1060.2
20260505203517 64 279 2.6 2.6 0.00 0.04 0.04 78 1060.2
20260505202516 64 255 2.6 2.6 0.00 0.04 0.04 81 1060.1
20260505201515 63 252 2.6 2.6 0.00 0.04 0.04 82 1059.8
20260505200510 63 253 2.6 2.6 0.00 0.04 0.04 84 1060.1
20260505195509 61 264 1.7 1.7 0.00 0.04 0.04 84 1060.0
20260505194510 60 248 2.6 2.6 0.00 0.04 0.04 85 1060.2
20260505193507 60 232 7.0 7.8 0.00 0.04 0.04 87 1060.6
20260505192503 60 259 5.2 8.7 0.00 0.04 0.04 89 1060.6
20260505191458 60 254 1.7 2.6 0.00 0.04 0.04 88 1060.2
20260505190456 62 313 2.6 2.6 0.00 0.04 0.04 81 1060.2
20260505185455 63 300 0.9 1.7 0.00 0.04 0.04 79 1059.8
20260505184454 62 259 3.5 4.3 0.00 0.04 0.04 79 1059.8
20260505183454 65 273 2.6 4.3 0.00 0.04 0.04 73 1059.8
20260505182453 67 266 4.3 5.2 0.00 0.04 0.04 65 1059.0
20260505181453 68 241 4.3 5.2 0.00 0.04 0.04 64 1059.1
20260505180452 68 248 0.9 1.7 0.00 0.04 0.04 65 1058.9
20260505175450 67 247 3.5 5.2 0.00 0.04 0.04 65 1058.9
20260505174450 67 261 3.5 4.3 0.00 0.04 0.04 66 1059.0
20260505173449 68 246 4.3 5.2 0.00 0.04 0.04 64 1059.0
20260505172445 68 245 0.9 0.9 0.00 0.04 0.04 65 1059.2
20260505171441 68 253 4.3 5.2 0.00 0.04 0.04 64 1058.9
20260505170440 68 233 6.1 7.8 0.00 0.04 0.04 63 1058.9
20260505165437 68 229 6.1 7.0 0.00 0.04 0.04 63 1058.7
20260505164436 68 251 2.6 2.6 0.00 0.04 0.04 64 1058.7
20260505163432 68 254 2.6 2.6 0.00 0.04 0.04 64 1058.8
20260505162432 68 252 5.2 6.1 0.00 0.04 0.04 64 1058.9
20260505161432 69 236 9.6 11.3 0.00 0.04 0.04 63 1058.9
20260505160428 69 233 9.6 12.2 0.00 0.04 0.04 63 1058.9
20260505152425 68 263 4.3 6.1 0.00 0.04 0.04 64 1059.1
20260505151421 68 263 7.0 8.7 0.00 0.04 0.04 64 1059.2
20260505150421 68 242 8.7 11.3 0.00 0.04 0.04 65 1059.0
20260505140409 65 265 3.5 5.2 0.00 0.04 0.04 71 1059.2
20260505124355 59 274 2.6 4.3 0.00 0.04 0.04 82 1059.5
20260505123352 58 250 2.6 2.6 0.00 0.04 0.04 83 1059.7
20260505122352 57 273 0.9 1.7 0.00 0.04 0.04 85 1059.7
20260505121351 57 261 2.6 2.6 0.00 0.04 0.04 86 1059.5
20260505120349 56 269 3.5 4.3 0.00 0.04 0.04 87 1059.6
20260505115345 57 261 3.5 4.3 0.00 0.04 0.04 87 1059.7
20260505114345 57 261 2.6 2.6 0.00 0.04 0.04 87 1059.3
20260505113344 56 260 1.7 1.7 0.00 0.04 0.04 88 1059.7
20260505112343 54 258 1.7 1.7 0.00 0.04 0.04 98 1059.0
20260505111340 52 252 0.0 0.9 0.00 0.04 0.04 99 1059.3
20260505110339 52 250 0.9 1.7 0.00 0.04 0.04 99 1059.6
20260505101333 52 265 0.9 0.9 0.00 0.04 0.04 99 1059.3
20260505100332 52 225 0.9 0.9 0.00 0.04 0.04 99 1059.3
20260505095331 52 245 0.0 0.0 0.00 0.03 0.03 99 1059.2
20260505094330 53 243 0.9 0.9 0.17 0.03 0.03 96 1059.7
20260505093329 54 265 3.5 5.2 0.00 0.00 0.00 87 1059.9
20260505092324 54 267 1.7 1.7 0.00 0.00 0.00 84 1059.5
20260505091319 53 267 0.9 1.7 0.00 0.00 0.00 86 1059.7
20260505090315 51 272 0.0 0.9 0.00 0.00 0.00 93 1059.5
20260505085310 51 269 0.9 0.9 0.00 0.00 0.00 95 1059.3
20260505084306 52 266 0.9 0.9 0.00 0.00 0.00 92 1059.7
20260505083306 53 269 0.0 0.0 0.00 0.00 0.00 88 1059.9
20260505082305 52 268 0.0 0.0 0.00 0.00 0.00 90 1059.9
20260505081303 52 275 0.9 0.9 0.00 0.00 0.00 92 1059.9
20260505080302 51 272 0.9 0.9 0.00 0.00 0.00 95 1059.7
20260505075301 52 272 0.0 0.9 0.00 0.00 0.00 93 1059.8
20260505074301 53 278 0.0 0.9 0.00 0.00 0.00 91 1059.8
20260505073256 56 266 0.0 0.0 0.00 0.00 0.00 79 1059.8
20260505072255 57 256 0.9 1.7 0.00 0.00 0.00 70 1059.6
20260505071253 57 204 1.7 1.7 0.00 0.00 0.00 71 1059.1
20260505070253 57 262 0.9 1.7 0.00 0.00 0.00 70 1059.2
20260505065251 57 259 0.0 0.0 0.00 0.00 0.00 70 1059.5
20260505064246 57 205 0.9 0.9 0.00 0.00 0.00 69 1059.5
20260505063246 57 264 0.9 0.9 0.00 0.00 0.00 69 1059.2
20260505062246 57 266 0.9 0.9 0.00 0.00 0.00 68 1059.2
20260505061240 57 267 1.7 1.7 0.00 0.00 0.00 67 1059.5
20260505060240 57 269 1.7 1.7 0.00 0.00 0.00 67 1059.7
20260505055238 57 271 0.9 0.9 0.00 0.00 0.00 68 1059.6
20260505054233 57 249 0.9 0.9 0.00 0.00 0.00 68 1059.5
20260505053233 57 278 0.0 0.0 0.00 0.00 0.00 67 1059.7
20260505052233 57 272 0.9 0.9 0.00 0.00 0.00 67 1059.8
20260505051228 57 256 0.9 0.9 0.00 0.00 0.00 67 1059.3
20260505050224 58 276 0.0 0.9 0.00 0.00 0.00 65 1059.8
20260505041220 58 270 0.0 0.9 0.00 0.00 0.00 63 1059.7
20260505040220 58 255 1.7 1.7 0.00 0.00 0.00 63 1059.5
20260505035218 58 272 0.0 0.0 0.00 0.00 0.00 64 1059.2
20260505034218 57 230 0.0 0.0 0.00 0.00 0.00 66 1059.1
20260505033213 57 220 0.9 0.9 0.00 0.00 0.00 66 1059.3
20260505032212 57 255 0.0 0.0 0.00 0.00 0.00 66 1059.1
20260505031211 56 225 1.7 1.7 0.00 0.00 0.00 67 1059.2
20260505030210 54 269 0.0 0.9 0.00 0.00 0.00 71 1059.5
20260505025205 51 274 0.9 0.9 0.00 0.00 0.00 76 1059.6
20260505024205 51 281 0.0 0.9 0.00 0.00 0.00 81 1059.6
20260505023200 52 294 0.9 0.9 0.00 0.00 0.00 79 1059.7
20260505022159 52 285 0.9 0.9 0.00 0.00 0.00 78 1059.6
20260505021159 52 304 0.9 1.7 0.00 0.00 0.00 77 1059.7
20260505020156 52 283 0.9 0.9 0.00 0.00 0.00 79 1059.8
20260505015156 52 305 0.9 1.7 0.00 0.00 0.00 80 1059.9
20260505014156 52 294 0.9 0.9 0.00 0.00 0.00 77 1060.0